Teterboro, NJ

11:35 AM EDT on April 24, 2018 (GMT -0400)
Teterboro

Weather History for KTEB - May, 2014

Change the Weather History Date:

Tuesday, May 6, 2014

  Actual Average Record
Temperature  
Mean Temperature 61 °F -  
Max Temperature 71 °F 68 °F 88 °F (2000)
Min Temperature 51 °F 47 °F 41 °F (2011)
Degree Days  
Heating Degree Days 4    
Growing Degree Days 11 (Base 50)    
Moisture  
Dew Point 32 °F    
Average Humidity 34    
Maximum Humidity 51    
Minimum Humidity 27    
Precipitation  
Precipitation 0.00 in - - ()
Sea Level Pressure  
Sea Level Pressure 29.93 in    
Wind  
Wind Speed 7 mph (NW)    
Max Wind Speed 14 mph    
Max Gust Speed 26 mph    
Visibility 10 miles    
Events      
Averages and records for this station are not official NWS values.
T = Trace of Precipitation, MM = Missing Value Source: NWS Daily Summary

Daily Weather History Graph

Daily Weather History Graph

Search for Another Location

Airport or City:

Astronomy

May. 06, 2014 Rise Set
Actual Time 5:48 AM EDT 7:57 PM EDT
Civil Twilight 5:18 AM EDT 8:28 PM EDT
Nautical Twilight 4:41 AM EDT 9:05 PM EDT
Astronomical Twilight 4:00 AM EDT 9:46 PM EDT
Moon 12:02 PM EDT (5/6) 1:15 AM EDT (5/6)
Length of Visible Light 15h 09m
Length of Day
14h 09m
Waxing Crescent, 46% of the Moon is Illuminated
May 6
Waxing Crescent
May 6
First Quarter
May 14
Full
May 21
Last Quarter
May 28
New

Hourly Weather History & Observations

Time (EDT) Temp. Dew Point Humidity Pressure Visibility Wind Dir Wind Speed Gust Speed Precip Events Conditions
12:51 AM 55.9 °F 26.1 °F 32% 29.89 in 10.0 mi North 3.5 mph - N/A   Clear
1:51 AM 54.0 °F 28.9 °F 38% 29.88 in 10.0 mi NNW 4.6 mph - N/A   Clear
2:51 AM 52.0 °F 28.9 °F 41% 29.88 in 10.0 mi NNW 5.8 mph - N/A   Clear
3:51 AM 51.1 °F 30.9 °F 46% 29.88 in 10.0 mi NNW 3.5 mph - N/A   Scattered Clouds
7:51 AM 55.4 °F 37.4 °F 51% 29.94 in 10.0 mi Variable 3.5 mph - N/A   Overcast
8:51 AM 57.0 °F 37.0 °F 47% 29.95 in 10.0 mi NW 4.6 mph - N/A   Overcast
10:51 AM 61.0 °F 37.0 °F 41% 29.94 in 10.0 mi WNW 4.6 mph - N/A   Overcast
11:51 AM 63.0 °F 35.1 °F 35% 29.92 in 10.0 mi Variable 5.8 mph - N/A   Mostly Cloudy
12:51 PM 66.0 °F 34.0 °F 30% 29.91 in 10.0 mi West 12.7 mph - N/A   Mostly Cloudy
1:24 PM 66.2 °F 32.0 °F 28% 29.90 in 10.0 mi West 9.2 mph 18.4 mph N/A   Mostly Cloudy
1:51 PM 68.0 °F 34.0 °F 28% 29.89 in 10.0 mi NW 12.7 mph 21.9 mph N/A   Mostly Cloudy
2:51 PM 71.1 °F 35.1 °F 27% 29.88 in 10.0 mi NNW 12.7 mph 21.9 mph N/A   Mostly Cloudy
3:51 PM 68.0 °F 35.1 °F 30% 29.88 in 10.0 mi NW 13.8 mph 26.5 mph N/A   Mostly Cloudy
4:51 PM 68.0 °F 34.0 °F 28% 29.90 in 10.0 mi NNW 11.5 mph 24.2 mph N/A   Partly Cloudy
5:51 PM 68.0 °F 33.1 °F 27% 29.92 in 10.0 mi NNW 11.5 mph 24.2 mph N/A   Clear
6:51 PM 66.0 °F 30.9 °F 27% 29.94 in 10.0 mi NW 12.7 mph 24.2 mph N/A   Clear
7:51 PM 64.0 °F 30.9 °F 29% 29.97 in 10.0 mi NNW 10.4 mph - N/A   Clear
8:51 PM 62.1 °F 30.0 °F 30% 30.00 in 10.0 mi NNW 8.1 mph - N/A   Clear
9:51 PM 61.0 °F 28.9 °F 30% 30.03 in 10.0 mi NNW 4.6 mph - N/A   Clear
10:51 PM 57.0 °F 30.0 °F 36% 30.05 in 10.0 mi NW 4.6 mph - N/A   Clear
11:51 PM 57.0 °F 28.9 °F 34% 30.07 in 10.0 mi North 4.6 mph - N/A   Clear